EW7794 Weather Reports


time (UTC)temp
C
wind
direction
speed
KPH
gust
KPH
rain 1hr
cm
rain 24hr
cm
rain mn
cm
humidity
%
barometer
mb
20260507115019 4 338 3.2 4.8 0.00 0.18 0.00 91 1011.5
20260507114018 4 338 1.6 4.8 0.00 0.18 0.00 91 1011.5
20260507113019 3 338 1.6 4.8 0.00 0.18 0.00 92 1011.5
20260507112019 3 0 1.6 3.2 0.00 0.18 0.00 92 1011.5
20260507111019 3 0 3.2 6.4 0.00 0.18 0.00 93 1011.5
20260507110018 3 0 1.6 12.9 0.00 0.18 0.00 93 1011.3
20260507105018 3 0.0 0.0 0.00 0.30 0.00 93 1011.1
20260507104019 2 0.0 0.0 0.00 0.30 0.00 93 1011.0
20260507103119 2 0.0 0.0 0.00 0.30 0.00 92 1010.9
20260507102019 2 0.0 3.2 0.00 0.30 0.00 92 1010.8
20260507101039 2 0.0 0.0 0.00 0.30 0.00 92 1010.8
20260507100019 2 0.0 1.6 0.00 0.30 0.00 92 1010.8
20260507095018 3 0.0 3.2 0.00 0.53 0.00 92 1010.8
20260507094018 3 248 1.6 4.8 0.00 0.53 0.00 93 1010.9
20260507093019 3 248 1.6 6.4 0.00 0.53 0.00 94 1010.9
20260507092019 2 270 1.6 4.8 0.00 0.53 0.00 94 1010.9
20260507091019 2 270 1.6 3.2 0.00 0.53 0.00 93 1010.8
20260507090039 1 0.0 3.2 0.00 0.53 0.00 92 1010.9
20260507085018 2 0.0 0.0 0.00 0.69 0.00 92 1010.8
20260507084019 2 0.0 0.0 0.00 0.69 0.00 92 1010.6
20260507083019 2 0.0 0.0 0.00 0.69 0.00 91 1010.6
20260507082018 2 0.0 0.0 0.00 0.69 0.00 91 1010.8
20260507081018 2 0.0 0.0 0.00 0.69 0.00 91 1010.8
20260507080018 3 0.0 0.0 0.00 0.69 0.00 91 1010.8
20260507075018 3 0.0 0.0 0.00 0.91 0.00 91 1010.5
20260507074038 3 0.0 0.0 0.00 0.91 0.00 90 1010.8
20260507073018 3 0.0 3.2 0.00 0.91 0.00 90 1011.0
20260507072018 3 0.0 0.0 0.00 0.91 0.00 90 1011.0
20260507071019 3 0.0 0.0 0.00 0.91 0.00 89 1011.1
20260507070058 4 0.0 1.6 0.00 0.91 0.00 89 1011.1
20260507065018 4 0.0 0.0 0.00 1.30 0.00 89 1011.0
20260507064038 5 0.0 0.0 0.00 1.30 0.00 88 1011.0
20260507063018 5 0.0 0.0 0.00 1.30 0.00 88 1010.9
20260507062018 5 0.0 0.0 0.00 1.30 0.00 87 1011.0
20260507061018 5 0.0 0.0 0.00 1.30 0.00 87 1011.1
20260507060018 5 0.0 0.0 0.00 1.30 0.00 86 1011.2
20260507055018 5 0.0 0.0 0.00 1.55 0.00 86 1011.3
20260507054018 5 0.0 1.6 0.00 1.55 0.00 86 1011.5
20260507053018 5 0.0 3.2 0.00 1.55 0.00 87 1011.6
20260507052020 5 270 1.6 3.2 0.00 1.55 0.00 87 1011.7
20260507051020 5 0.0 3.2 0.00 1.55 0.00 87 1011.7
20260507050020 5 0.0 3.2 0.00 1.55 0.00 87 1011.8
20260507045020 5 270 1.6 4.8 0.00 1.73 0.00 87 1011.9
20260507044100 5 0.0 0.0 0.00 1.73 0.00 87 1011.7
20260507043020 5 270 1.6 4.8 0.00 1.73 0.00 87 1011.8
20260507042020 5 270 1.6 6.4 0.00 1.73 0.00 87 1011.6
20260507041040 5 0.0 3.2 0.00 1.73 0.00 88 1011.7
20260507040020 5 270 1.6 4.8 0.00 1.91 1.73 88 1011.6
20260507035100 5 270 1.6 4.8 0.00 1.91 1.73 88 1011.5
20260507034019 5 270 1.6 3.2 0.00 1.91 1.73 88 1011.5
20260507033019 5 270 3.2 4.8 0.00 1.91 1.73 88 1011.5
20260507032019 5 270 4.8 6.4 0.00 1.91 1.73 87 1011.4
20260507031040 5 270 3.2 9.7 0.00 1.91 1.73 88 1011.4
20260507030019 5 293 3.2 6.4 0.00 1.91 1.73 88 1011.3
20260507025019 5 293 1.6 4.8 0.00 2.01 1.73 88 1011.2
20260507024019 5 270 3.2 8.0 0.00 2.01 1.73 88 1011.2
20260507023020 5 270 6.4 12.9 0.00 2.01 1.73 88 1011.2
20260507022019 5 270 6.4 11.3 0.00 2.01 1.73 88 1011.2
20260507021019 6 270 6.4 12.9 0.00 2.01 1.73 88 1011.3
20260507020019 6 293 6.4 11.3 0.00 2.16 1.73 88 1011.4
20260507015019 6 270 8.0 12.9 0.00 2.16 1.73 88 1011.4
20260507014020 6 270 6.4 11.3 0.00 2.16 1.73 88 1011.3
20260507013019 6 293 8.0 14.5 0.00 2.16 1.73 88 1011.3
20260507012019 6 293 8.0 17.7 0.00 2.16 1.73 88 1010.9
20260507011019 6 270 11.3 17.7 0.00 2.16 1.73 89 1011.0
20260507010019 6 293 11.3 17.7 0.00 2.16 1.73 90 1011.2
20260507005019 6 293 9.7 17.7 0.00 2.21 1.73 90 1011.1
20260507004019 6 293 8.0 12.9 0.00 2.21 1.73 90 1010.7
20260507003019 6 293 9.7 17.7 0.00 2.21 1.73 90 1010.6
20260507002019 6 315 8.0 14.5 0.00 2.21 1.73 90 1010.3
20260507001019 6 293 8.0 12.9 0.00 2.21 1.73 90 1010.2
20260507000019 6 293 9.7 17.7 0.00 2.21 1.73 90 1010.2
20260506235019 6 293 11.3 20.9 0.00 2.46 1.73 90 1010.1
20260506234019 6 293 9.7 14.5 0.00 2.46 1.73 89 1010.0
20260506233019 7 293 14.5 24.1 0.00 2.46 1.73 87 1010.1
20260506232019 8 270 12.9 22.5 0.00 2.46 1.73 86 1009.9
20260506231019 8 293 12.9 20.9 0.00 2.46 1.73 85 1009.9
20260506230018 9 293 11.3 22.5 0.00 2.79 1.73 83 1009.5
20260506225019 9 270 11.3 20.9 0.00 2.79 1.73 80 1009.4
20260506224019 8 270 9.7 25.7 0.00 2.79 1.73 84 1009.2
20260506223019 8 0.0 6.4 0.00 2.79 1.73 86 1009.0
20260506222020 8 158 4.8 8.0 0.00 2.79 1.73 85 1008.7
20260506221039 9 158 1.6 6.4 0.00 2.79 1.73 85 1008.9
20260506220019 9 158 4.8 8.0 0.00 2.79 1.73 85 1008.8
20260506215019 9 180 3.2 4.8 0.00 2.79 1.73 85 1008.6
20260506214019 9 180 3.2 6.4 0.00 2.79 1.73 84 1008.5
20260506213019 9 180 1.6 4.8 0.00 2.79 1.73 84 1008.5
20260506212019 9 0.0 0.0 0.00 2.79 1.73 83 1008.6
20260506211019 9 180 1.6 4.8 0.00 2.79 1.73 83 1008.7
20260506210059 9 0.0 0.0 0.00 2.79 1.73 83 1008.6
20260506205019 9 0.0 1.6 0.00 2.79 1.73 83 1008.7
20260506204019 9 180 1.6 4.8 0.00 2.79 1.73 82 1008.7
20260506203039 9 180 1.6 4.8 0.00 2.79 1.73 83 1008.6
20260506202059 8 270 1.6 4.8 0.00 2.79 1.73 83 1008.7
20260506201019 8 0.0 3.2 0.00 2.79 1.73 86 1008.8
20260506200019 8 0.0 0.0 0.00 2.79 1.73 87 1008.7
20260506195018 8 0.0 3.2 0.00 2.79 1.73 87 1008.7
20260506194021 8 293 1.6 6.4 0.00 2.79 1.73 87 1008.7
20260506193018 8 338 1.6 6.4 0.00 2.79 1.73 88 1008.7
20260506192038 8 68 1.6 4.8 0.00 2.79 1.73 89 1008.5
20260506191018 8 0 3.2 4.8 0.00 2.79 1.73 90 1008.5
20260506190019 7 0 1.6 6.4 0.00 2.79 1.73 90 1008.6
20260506185018 7 315 1.6 6.4 0.00 2.79 1.73 90 1008.6
20260506184018 7 0 3.2 6.4 0.00 2.79 1.73 90 1008.6
20260506183019 7 0 3.2 4.8 0.00 2.79 1.73 90 1008.7
20260506182018 7 315 4.8 8.0 0.00 2.79 1.73 90 1008.5
20260506181018 7 293 3.2 6.4 0.00 2.79 1.73 90 1008.6
20260506180018 7 0 3.2 6.4 0.00 2.79 1.73 90 1008.6
20260506175038 7 0 1.6 4.8 0.00 2.79 1.73 90 1008.5
20260506174018 7 0 1.6 6.4 0.00 2.79 1.73 89 1008.6
20260506173018 7 315 1.6 4.8 0.00 2.79 1.73 89 1008.4
20260506172018 7 293 1.6 6.4 0.00 2.79 1.73 89 1008.1
20260506171038 7 0 1.6 4.8 0.00 2.79 1.73 89 1008.1
20260506170019 7 23 1.6 6.4 0.00 2.79 1.73 89 1007.8
20260506165018 7 0 3.2 6.4 0.00 2.79 1.73 89 1007.7
20260506164020 7 0 3.2 8.0 0.00 2.79 1.73 90 1007.8
20260506163018 7 23 1.6 4.8 0.00 2.79 1.73 91 1008.0
20260506162018 7 23 3.2 6.4 0.00 2.79 1.73 91 1007.9
20260506161018 7 23 1.6 4.8 0.00 2.79 1.73 91 1007.7
20260506160038 7 23 3.2 6.4 0.00 2.79 1.73 92 1007.6
20260506155018 7 0 3.2 4.8 0.00 2.79 1.73 93 1007.8
20260506154018 7 0 3.2 6.4 0.00 2.79 1.73 93 1007.8
20260506153040 7 68 1.6 3.2 0.03 2.79 1.73 93 1007.8
20260506152040 6 68 3.2 6.4 0.03 2.79 1.73 93 1007.4
20260506151020 6 68 3.2 4.8 0.03 2.79 1.73 93 1007.5
20260506150020 6 68 3.2 6.4 0.03 2.79 1.73 94 1007.4
20260506145020 6 0 3.2 6.4 0.03 2.79 1.73 94 1007.4
20260506144018 6 68 4.8 9.7 0.03 2.77 1.70 94 1007.2
20260506143020 6 68 3.2 4.8 0.03 2.77 1.70 94 1007.3
20260506142020 6 0 1.6 4.8 0.03 2.77 1.70 94 1007.1
20260506141018 6 45 3.2 4.8 0.05 2.77 1.70 94 1007.1
20260506140020 6 45 3.2 6.4 0.05 2.77 1.70 94 1006.9
20260506135020 6 68 1.6 4.8 0.05 2.77 1.70 94 1007.0
20260506134020 6 68 4.8 6.4 0.05 2.74 1.68 94 1007.0
20260506133020 6 68 4.8 9.7 0.05 2.74 1.68 94 1007.0
20260506132100 6 113 3.2 6.4 0.05 2.74 1.68 94 1007.0
20260506131020 6 90 4.8 6.4 0.05 2.72 1.65 93 1006.8
20260506130020 6 113 4.8 8.0 0.05 2.72 1.65 94 1006.9
20260506125019 6 68 3.2 6.4 0.05 2.72 1.65 94 1006.7
20260506124019 6 90 6.4 16.1 0.05 2.69 1.63 94 1006.5
20260506123020 6 90 6.4 9.7 0.05 2.69 1.63 94 1006.7
20260506122020 6 68 6.4 12.9 0.08 2.69 1.63 94 1006.7
20260506121019 6 90 6.4 11.3 0.05 2.67 1.60 94 1006.8
20260506120019 6 68 4.8 11.3 0.05 2.67 1.60 94 1007.1